Columbia, SC

8:45 PM EDT on August 18, 2017 (GMT -0400)
Columbia Metro

Weather History for KCAE - September, 2013

Change the Weather History Date:

Tuesday, September 24, 2013

  Actual Average Record
Temperature  
Mean Temperature 68 °F 72 °F  
Max Temperature 79 °F 83 °F 97 °F (1931)
Min Temperature 56 °F 61 °F 42 °F (1896)
Degree Days  
Heating Degree Days 0 1  
Month to date heating degree days 0 1  
Since 1 July heating degree days 0 1  
Cooling Degree Days 3 7  
Month to date cooling degree days 320 260  
Year to date cooling degree days 2013 2028  
Growing Degree Days 17 (Base 50)    
Moisture  
Dew Point 57 °F    
Average Humidity 71    
Maximum Humidity 93    
Minimum Humidity 48    
Precipitation  
Precipitation 0.00 in 0.11 in 2.84 in (2015)
Month to date precipitation 0.90 2.86  
Year to date precipitation 44.41 34.78  
Sea Level Pressure  
Sea Level Pressure 30.00 in    
Wind  
Wind Speed 4 mph (ESE)    
Max Wind Speed 14 mph    
Max Gust Speed 18 mph    
Visibility 10 miles    
Events      
T = Trace of Precipitation, MM = Missing Value Source: NWS Daily Summary

Daily Weather History Graph

Daily Weather History Graph

Search for Another Location

Airport or City:

Trip Planner

Search our weather history database for the weather conditions in past years. The results will help you decide how hot, cold, wet, or windy it might be!

Date:

Astronomy

Sep. 24, 2013 Rise Set
Actual Time 7:14 AM EDT 7:18 PM EDT
Civil Twilight 6:49 AM EDT 7:42 PM EDT
Nautical Twilight 6:20 AM EDT 8:12 PM EDT
Astronomical Twilight 5:50 AM EDT 8:41 PM EDT
Moon 10:48 PM EDT (9/24) 12:13 PM EDT (9/24)
Length of Visible Light 12h 53m
Length of Day
12h 03m
Waning Gibbous, 73% of the Moon is Illuminated
Sep 24
Waning Gibbous
Sep 26
Last Quarter
Oct 4
New
Oct 11
First Quarter
Oct 18
Full

Hourly Weather History & Observations

Time (EDT) Temp. Dew Point Humidity Pressure Visibility Wind Dir Wind Speed Gust Speed Precip Events Conditions
12:56 AM 63.0 °F 57.9 °F 84% 30.05 in 10.0 mi Calm Calm - N/A   Clear
1:56 AM 64.9 °F 57.9 °F 78% 30.05 in 10.0 mi Calm Calm - N/A   Clear
2:56 AM 60.1 °F 57.0 °F 90% 30.04 in 10.0 mi Calm Calm - N/A   Clear
3:56 AM 57.0 °F 55.0 °F 93% 30.04 in 10.0 mi Calm Calm - N/A   Clear
4:56 AM 57.9 °F 55.0 °F 90% 30.04 in 10.0 mi Calm Calm - N/A   Clear
5:56 AM 57.9 °F 55.0 °F 90% 30.05 in 10.0 mi Calm Calm - N/A   Clear
6:56 AM 55.9 °F 53.1 °F 90% 30.06 in 10.0 mi Calm Calm - N/A   Clear
7:56 AM 57.0 °F 54.0 °F 89% 30.06 in 9.0 mi Calm Calm - N/A   Scattered Clouds
8:56 AM 64.0 °F 57.0 °F 78% 30.06 in 10.0 mi ESE 5.8 mph - N/A   Mostly Cloudy
9:56 AM 68.0 °F 57.9 °F 70% 30.06 in 10.0 mi ESE 6.9 mph - N/A   Scattered Clouds
10:56 AM 73.0 °F 59.0 °F 61% 30.06 in 10.0 mi ESE 10.4 mph - N/A   Mostly Cloudy
11:56 AM 75.9 °F 57.0 °F 52% 30.04 in 10.0 mi East 10.4 mph - N/A   Mostly Cloudy
12:56 PM 77.0 °F 57.9 °F 52% 30.02 in 10.0 mi ESE 8.1 mph 17.3 mph N/A   Overcast
1:56 PM 78.1 °F 57.0 °F 48% 30.00 in 10.0 mi East 8.1 mph 18.4 mph N/A   Mostly Cloudy
2:56 PM 79.0 °F 57.0 °F 47% 29.98 in 10.0 mi ESE 10.4 mph 17.3 mph N/A   Overcast
3:56 PM 79.0 °F 57.0 °F 47% 29.96 in 10.0 mi East 8.1 mph - N/A   Mostly Cloudy
4:56 PM 78.1 °F 57.9 °F 50% 29.95 in 10.0 mi Variable 6.9 mph - N/A   Mostly Cloudy
5:56 PM 78.1 °F 57.9 °F 50% 29.94 in 10.0 mi ESE 6.9 mph - N/A   Mostly Cloudy
6:56 PM 77.0 °F 57.9 °F 52% 29.94 in 10.0 mi SE 5.8 mph - N/A   Mostly Cloudy
7:56 PM 75.9 °F 57.9 °F 54% 29.92 in 10.0 mi ESE 5.8 mph - N/A   Mostly Cloudy
8:56 PM 75.0 °F 60.1 °F 60% 29.93 in 10.0 mi East 3.5 mph - N/A   Mostly Cloudy
9:56 PM 73.0 °F 61.0 °F 66% 29.94 in 10.0 mi ESE 4.6 mph - N/A   Mostly Cloudy
10:56 PM 73.0 °F 61.0 °F 66% 29.93 in 10.0 mi ESE 4.6 mph - N/A   Mostly Cloudy
11:56 PM 70.0 °F 61.0 °F 73% 29.93 in 10.0 mi ESE 6.9 mph - N/A   Mostly Cloudy